Погода в Таловой

Россия / Воронежская область     51°48′21″N   39°55′30″E
темп.,
°C
ветер,
м/с
пор.,
м/с
влажн.,
%
обл.,
%
осадки,
мм/ч
давл.,
гПа
погр.,
м
10 мая, пн
пн1000:00+6ссз71287100 0.1 10171180
03:00+5ссз71383100 0.3 1018908
06:00+5с81381100 0.0 1018929
09:00+5с81483100 0.0 1019705
12:00+6с91887100 0.1 1018726
15:00+6с111992100 1.2 1017718
18:00+7с92094100 2.5 1016643
21:00+9ссв81793100 2.6 1017696
11 мая, вт
вт1100:00+9ссв81695100 0.6 1016508
03:00+9ссв81795100 0.8 1016524
06:00+11св71494100 0.4 1016750
09:00+8в41194100 1.9 1019652
12:00+11вюв71075100 2.1 10211279
15:00+12в7116463 2.2 10221652
18:00+11вюв711757 0.1 10241071
21:00+7в38904 0.1 1025146
12 мая, ср
ср1200:00+6всв479197 0.0 1025128
03:00+7всв3884100 0.0 1025162
06:00+8св498286 0.0 1024229
09:00+12всв6877100 0.1 1022839
12:00+13всв4567100 0.1 10211085
15:00+12всв25785 1.1 1020481
18:00+14в5974100 0.6 1019379
21:00+10юв358957 0.8 102087
13 мая, чт
чт1300:00+11в3490100 0.0 101977
03:00+11в488984 0.0 1019173
06:00+11вюв248841 0.0 1019104
09:00+17вюв236725 0.0 1018485
12:00+21ююв115243 0.0 10181319
15:00+22юв124776 0.0 10171640
18:00+21вюв346570 0.1 1017226
21:00+16в359082 0.1 101875
14 мая, пт
пт1400:00+14в3593100 0.0 101883
03:00+14в4792100 0.0 1017129
06:00+15вюв379097 0.0 1017162
09:00+20юв586986 0.0 1017451
12:00+24юв685838 0.0 10161346
15:00+25юв6851100 0.0 10151423
18:00+24юв476876 0.0 1014260
21:00+20юв51378100 0.0 1013283